EW3871 Bellvis ES current weather conditions

sailwx.info

Wind from 274 at 4 knots gusting 6

Air temperature 8.3° C
Dewpoint 6.8° C

Last reported at 2020-Jan-22 12:46 UTC.
Time now 2020-Jan-22 13:27 UTC

Location: N 41°40' E 000°49'.
View on Google Maps.

See reports from other nearby stations

  
Tides and Currents Weather Stations Pressure Air Temp Water Temp Dewpoint Dewpoint Depression Visibility Wind Speed Wind Dir Waves Ship Positions
date/time (UTC)wind fromknots sea level pressurealtimeterstation pressurevisibilityair tempwater tempwave heightnotes
2020-Jan-22 13:01 280 5 gusting 7 8.3
2020-Jan-22 12:46 274 4 gusting 6 8.3
2020-Jan-22 12:30 288 1 gusting 4 8.9
2020-Jan-22 12:16 321 1 gusting 5 8.9
2020-Jan-22 12:01 268 0 gusting 6 9.4
2020-Jan-22 11:45 247 2 gusting 5 8.9
2020-Jan-22 11:30 281 2 gusting 5 8.9
2020-Jan-22 11:15 292 1 gusting 3 8.3
2020-Jan-22 11:00 308 1 gusting 3 7.8
2020-Jan-22 10:45 278 2 gusting 5 7.8
2020-Jan-22 10:30 272 2 gusting 6 7.8
2020-Jan-22 10:15 290 2 gusting 3 8.3
2020-Jan-22 10:00 277 2 gusting 5 7.8
2020-Jan-22 09:45 322 0 gusting 3 7.8
2020-Jan-22 09:30 313 1 gusting 3 7.2
2020-Jan-22 09:17 322 7.2
2020-Jan-22 09:03 035 0 gusting 3 7.2
2020-Jan-22 08:46 065 0 gusting 3 6.7
2020-Jan-22 08:32 345 6.7
2020-Jan-22 08:17 086 7.2
2020-Jan-22 08:01 090 6.7
2020-Jan-22 07:46 108 6.7
2020-Jan-22 07:31 108 6.7
2020-Jan-22 07:16 096 1 gusting 3 7.2
2020-Jan-22 07:01 099 2 gusting 3 6.7
2020-Jan-22 06:46 101 1 gusting 4 6.7
2020-Jan-22 06:33 086 3 gusting 6 6.7
2020-Jan-22 06:17 108 5 gusting 7 7.2
2020-Jan-22 06:02 079 4 gusting 6 6.7
2020-Jan-22 05:46 094 3 gusting 7 7.2
2020-Jan-22 05:31 082 4 gusting 7 6.7
2020-Jan-22 05:17 102 4 gusting 8 7.2
2020-Jan-22 05:02 086 7 gusting 13 7.2
2020-Jan-22 04:46 086 6 gusting 11 7.2
2020-Jan-22 04:32 092 5 gusting 13 7.2
2020-Jan-22 04:16 068 7 gusting 14 7.8
2020-Jan-22 04:01 091 6 gusting 10 7.2
2020-Jan-22 03:46 060 6 gusting 13 7.2
2020-Jan-22 03:31 064 6 gusting 12 7.2
2020-Jan-22 03:16 075 6 gusting 13 7.2
2020-Jan-22 03:01 091 5 gusting 11 7.2
2020-Jan-22 02:46 082 7 gusting 14 7.2
2020-Jan-22 02:31 056 9 gusting 13 6.7
2020-Jan-22 02:16 056 11 gusting 16 6.1
2020-Jan-22 02:01 097 6 gusting 13 6.1
2020-Jan-22 01:45 058 5 gusting 10 6.1
2020-Jan-22 01:30 063 8 gusting 13 6.7
2020-Jan-22 01:15 065 9 gusting 16 6.7
2020-Jan-22 01:00 070 6 gusting 13 6.7
2020-Jan-22 00:45 066 6 gusting 10 6.7
2020-Jan-22 00:30 065 6 gusting 9 6.7
2020-Jan-22 00:15 048 3 gusting 11 6.7
2020-Jan-22 00:00 056 6 gusting 9 6.7
2020-Jan-21 23:45 063 3 gusting 9 6.7
2020-Jan-21 23:30 066 6 gusting 11 6.7
2020-Jan-21 23:15 079 6 gusting 12 6.7
2020-Jan-21 23:02 086 3 gusting 5 6.7
2020-Jan-21 22:47 092 0 gusting 6 6.7
2020-Jan-21 22:32 090 2 gusting 5 6.7
2020-Jan-21 22:18 131 5 gusting 14 6.1
2020-Jan-21 22:03 127 9 gusting 19 6.7
2020-Jan-21 21:46 099 13 gusting 22 7.2
2020-Jan-21 21:32 096 10 gusting 15 8.9
2020-Jan-21 21:16 082 12 gusting 20 8.9
2020-Jan-21 21:01 072 8 gusting 23 8.9
2020-Jan-21 20:49 070 12 gusting 21 8.9
2020-Jan-21 20:31 080 12 gusting 24 9.4
2020-Jan-21 20:16 082 12 gusting 28 11.1
2020-Jan-21 20:01 058 19 gusting 27 11.1
2020-Jan-21 19:47 079 16 gusting 30 11.1
2020-Jan-21 19:32 106 16 gusting 26 11.1
2020-Jan-21 19:16 065 15 gusting 30 11.1
2020-Jan-21 19:03 100 18 gusting 26 11.1
2020-Jan-21 18:46 074 13 gusting 24 11.1
2020-Jan-21 18:32 111 12 gusting 24 10.6
2020-Jan-21 18:16 068 16 gusting 32 10.6
2020-Jan-21 18:01 091 16 gusting 26 10.6
2020-Jan-21 17:46 115 18 gusting 30 10.6
2020-Jan-21 17:32 082 16 gusting 32 10.6
2020-Jan-21 17:16 085 20 gusting 28 10.0
2020-Jan-21 17:00 070 20 gusting 32 10.6
2020-Jan-21 16:30 082 22 gusting 36 10.6
2020-Jan-21 16:15 069 18 gusting 33 10.6
2020-Jan-21 16:00 094 17 gusting 33 10.6
2020-Jan-21 15:45 072 16 gusting 33 10.6
2020-Jan-21 15:30 025 17 gusting 31 10.6
2020-Jan-21 15:15 104 17 gusting 31 10.6
2020-Jan-21 15:00 122 21 gusting 36 10.6
2020-Jan-21 14:45 094 20 gusting 36 10.0
2020-Jan-21 14:30 084 24 gusting 45 10.6
2020-Jan-21 14:15 076 18 gusting 33 10.0
2020-Jan-21 11:46 056 18 gusting 32 9.4
2020-Jan-21 11:31 041 15 gusting 33 9.4
2020-Jan-21 11:15 110 18 gusting 34 8.9
2020-Jan-21 11:00 089 16 gusting 31 8.9
2020-Jan-21 10:45 086 19 gusting 32 8.9
2020-Jan-21 10:30 081 21 gusting 33 8.3
2020-Jan-21 10:15 082 16 gusting 31 7.8
2020-Jan-21 10:01 104 19 gusting 35 7.2
2020-Jan-21 09:46 073 19 gusting 31 6.7
2020-Jan-21 09:30 015 15 gusting 28 6.1
2020-Jan-21 09:15 063 15 gusting 28 6.1
2020-Jan-21 09:00 041 15 gusting 25 6.1
2020-Jan-21 08:45 102 12 gusting 27 6.1
2020-Jan-21 08:30 057 16 gusting 27 6.1
2020-Jan-21 08:15 075 14 gusting 33 7.8
2020-Jan-21 08:00 090 20 gusting 34 7.8
2020-Jan-21 07:45 082 17 gusting 33 6.1
2020-Jan-21 07:31 076 13 gusting 28 7.8
2020-Jan-21 07:17 079 15 gusting 31 8.3
2020-Jan-21 07:02 068 12 gusting 22 7.8
2020-Jan-21 06:47 117 13 gusting 26 8.3
2020-Jan-21 06:34 093 17 gusting 30 8.3
2020-Jan-21 06:16 083 17 gusting 30 8.3
2020-Jan-21 06:01 095 16 gusting 31 8.3
2020-Jan-21 05:47 101 14 gusting 31 8.3
2020-Jan-21 05:32 122 19 gusting 30 7.8
2020-Jan-21 05:17 086 17 gusting 29 7.8
2020-Jan-21 05:01 074 18 gusting 27 7.8
2020-Jan-21 04:46 075 11 gusting 28 7.8
2020-Jan-21 04:34 084 16 gusting 26 7.8
2020-Jan-21 04:16 103 16 gusting 28 7.8
2020-Jan-21 04:01 100 17 gusting 26 7.8
2020-Jan-21 03:45 082 16 gusting 26 7.8
2020-Jan-21 03:31 082 13 gusting 25 7.2
2020-Jan-21 03:17 104 14 gusting 26 7.2
2020-Jan-21 03:00 107 17 gusting 27 7.8
2020-Jan-21 02:46 089 19 gusting 28 8.3
2020-Jan-21 02:31 099 15 gusting 30 8.3
2020-Jan-21 02:15 091 14 gusting 27 8.3
2020-Jan-21 02:00 094 17 gusting 31 8.3
2020-Jan-21 01:45 086 19 gusting 30 8.3
2020-Jan-21 00:15 086 6 gusting 13 8.3
2020-Jan-21 00:01 086 6 gusting 12 7.8
2020-Jan-20 23:45 108 4 gusting 10 7.8
2020-Jan-20 23:31 067 5 gusting 9 7.8
2020-Jan-20 23:15 097 5 gusting 8 8.3
2020-Jan-20 23:00 059 4 gusting 10 8.3
2020-Jan-20 22:45 080 4 gusting 13 8.3
2020-Jan-20 22:30 091 6 gusting 13 8.3
2020-Jan-20 22:15 071 9 gusting 19 8.3
2020-Jan-20 22:00 096 9 gusting 18 8.3
2020-Jan-20 21:45 109 8 gusting 23 8.3
2020-Jan-20 21:30 077 10 gusting 25 8.9
2020-Jan-20 21:15 051 8 gusting 21 8.9
2020-Jan-20 21:00 084 14 gusting 26 8.9
2020-Jan-20 20:45 075 12 gusting 23 8.9
2020-Jan-20 20:30 056 11 gusting 18 8.9
2020-Jan-20 20:15 106 13 gusting 24 8.9
2020-Jan-20 20:00 065 13 gusting 24 8.9
2020-Jan-20 19:45 064 12 gusting 23 8.9
2020-Jan-20 19:17 086 11 gusting 21 8.9
2020-Jan-20 19:02 067 11 gusting 26 8.9
2020-Jan-20 18:47 086 13 gusting 22 8.9
2020-Jan-20 18:34 099 10 gusting 19 8.9
2020-Jan-20 18:17 063 11 gusting 19 8.9
2020-Jan-20 18:04 095 13 gusting 24 8.9
2020-Jan-20 17:49 079 14 gusting 22 8.9
2020-Jan-20 17:32 115 12 gusting 26 9.4
2020-Jan-20 17:17 104 13 gusting 23 9.4
2020-Jan-20 17:02 113 19 gusting 28 9.4
2020-Jan-20 16:46 092 13 gusting 18 9.4
2020-Jan-20 16:32 097 9 gusting 21 9.4
2020-Jan-20 16:16 081 11 gusting 19 9.4
2020-Jan-20 16:04 076 14 gusting 22 9.4
2020-Jan-20 15:47 078 11 gusting 19 9.4
2020-Jan-20 15:32 097 10 gusting 19 9.4
2020-Jan-20 15:16 070 10 gusting 17 9.4
2020-Jan-20 15:01 079 11 gusting 18 9.4
2020-Jan-20 14:46 082 13 gusting 22 9.4
2020-Jan-20 14:31 079 13 gusting 19 9.4
2020-Jan-20 14:16 084 6 gusting 13 8.3
2020-Jan-20 14:02 149 2 gusting 12 6.7
2020-Jan-20 13:46 282 4.4
2020-Jan-20 13:32 293 0 gusting 3 4.4
2020-Jan-20 13:16 281 4.4
2020-Jan-20 13:01 219 4.4